Flag for Germany Weather past 2 weeks in Stuttgart, Baden-Württemberg, Germany

Now
50 °F

Broken clouds.


Feels Like: 50 °F
Forecast: 48 / 68 °F
Wind: 1 mph from North

Location: Stuttgart-Echterdingen

Current Time: Aug 22, 2014 at 8:44:52 AM

Latest Report: Aug 22, 2014 at 7:50 AM


Visibility: N/A

Pressure: 30.01 "Hg

Humidity: 94%

Dew point: 48 °F

Location of StuttgartLocation

Historic Weather in Stuttgart — Graph

°F

Stuttgart temperature yesterday

Maximum temperature yesterday: 66 °F (at 3:20 PM)
Minimum temperature yesterday: 48 °F (at 6:50 AM)
Average temperature yesterday: 58 °F

Past Weeks' High & Low Weather Summary

 TemperatureHumidityPressure
High82 °F (Aug 10, 5:20 PM)100% (Aug 8, 2:50 AM)30.18 "Hg (Aug 8, 2:50 AM)
Low48 °F (Aug 21, 6:50 AM)40% (Aug 19, 5:50 PM)29.68 "Hg (Aug 13, 1:20 PM)
Average62 °F73%29.96 "Hg
* Reported Aug 7 7:20 AM — Aug 22 7:50 AM, Stuttgart, Weather by CustomWeather, © 2014

Note: Actual official high and low records may vary slightly from our data, if they occured in-between our weather recording intervals... More about our weather records

Advertising

Stuttgart weather history for previous 24 hours

 ConditionsComfort  
Time TempWeatherWind HumidityBarometerVisibility
7:50 AM
Aug 22
50 °FBroken clouds.1 mph94%30.01 "HgN/A
7:20 AM50 °FPartly cloudy.1 mph94%30.01 "HgN/A
6:50 AM48 °FClear.2 mph94%30.01 "Hg10 mi
6:20 AM48 °FClear.1 mph94%30.01 "Hg10 mi
5:50 AM50 °FClear.1 mph88%30.01 "Hg10 mi
5:20 AM50 °FClear.2 mph88%30.01 "Hg10 mi
4:20 AM48 °FClear.1 mph94%30.04 "Hg10 mi
3:50 AM50 °FClear.1 mph88%30.04 "Hg10 mi
3:20 AM50 °FClear.3 mph88%30.04 "Hg10 mi
2:50 AM50 °FClear.1 mph82%30.04 "Hg10 mi
2:20 AM50 °FClear.2 mph88%30.04 "Hg10 mi
1:50 AM50 °FClear.1 mph82%30.04 "Hg10 mi
1:20 AM50 °FClear.1 mph88%30.04 "Hg10 mi
12:50 AM52 °FClear.2 mph82%30.04 "Hg10 mi
12:20 AM54 °FClear.1 mph77%30.04 "Hg10 mi
11:50 PM
Aug 21
54 °FClear.2 mph77%30.04 "Hg10 mi
11:20 PM55 °FClear.No wind72%30.04 "Hg10 mi
10:50 PM55 °FClear.1 mph72%30.04 "Hg10 mi
10:20 PM57 °FClear.No wind67%30.04 "Hg10 mi
9:50 PM59 °FClear.2 mph63%30.04 "Hg10 mi
9:20 PM59 °FSunny.5 mph63%30.04 "Hg10 mi
8:50 PM61 °FSunny.2 mph59%30.04 "Hg10 mi
8:20 PM61 °FSunny.5 mph59%30.04 "Hg10 mi
7:50 PM63 °FSunny.5 mph56%30.01 "Hg10 mi
7:20 PM63 °FSunny.6 mph52%30.01 "Hg10 mi
6:50 PM64 °FSunny.6 mph49%30.01 "Hg10 mi
6:20 PM63 °FSunny.6 mph56%30.01 "Hg10 mi
5:50 PM64 °FSunny.6 mph52%30.01 "Hg10 mi
5:20 PM64 °FSunny.6 mph52%30.01 "Hg10 mi
4:50 PM64 °FSunny.9 mph52%30.01 "Hg10 mi
4:20 PM64 °FSunny.7 mph52%30.04 "Hg10 mi
3:50 PM64 °FPassing clouds.6 mph43%30.04 "HgN/A
3:20 PM66 °FSunny.2 mph40%30.04 "Hg10 mi
2:50 PM64 °FSunny.7 mph52%30.04 "Hg10 mi
2:20 PM64 °FPassing clouds.7 mph49%30.07 "HgN/A
1:50 PM64 °FSunny.5 mph49%30.07 "Hg10 mi
1:20 PM63 °FSunny.8 mph52%30.07 "Hg10 mi
12:50 PM63 °FSunny.5 mph49%30.07 "Hg10 mi
12:20 PM63 °FScattered clouds.3 mph49%30.07 "HgN/A
11:50 AM63 °FScattered clouds.3 mph45%30.07 "HgN/A
11:20 AM61 °FScattered clouds.7 mph55%30.07 "HgN/A
10:50 AM61 °FPassing clouds.6 mph55%30.07 "HgN/A
10:20 AM61 °FPassing clouds.3 mph63%30.07 "HgN/A
9:50 AM59 °FPassing clouds.3 mph72%30.07 "HgN/A
9:20 AM57 °FSunny.3 mph72%30.07 "Hg10 mi
8:50 AM55 °FSunny.3 mph77%30.07 "Hg10 mi
8:20 AM54 °FSunny.1 mph82%30.07 "Hg10 mi
Weather by CustomWeather, © 2014

See weather overviewHow to use our weather pages